Wetbulb
30.73 31.13 31.70 32.45 32.77 32.53 32.16 32.25 32.87 32.90 32.60 31.99 31.96 32.16 32.38 32.46 32.36 32.61 32.89 33.20 33.37 33.64 33.94 34.35 34.83 35.24 35.57 35.94 36.33 36.41 36.45 36.43 36.43 36.80 37.16 37.30 37.16 37.27 37.49 37.66 37.73 37.74 37.82 37.94 38.14 38.37 38.70 39.25 39.88 40.70 41.58 42.42 43.04 43.71 44.52 45.59 46.57 47.38 47.92 48.19 48.19 47.88 47.52 46.93 46.93 47.20 47.83 48.59 49.04
30.26 30.87 31.77 32.87 32.93 32.41 31.74 31.74 31.96 32.06 32.00 31.88 32.10 32.31 32.34 32.34 32.31 32.36 32.63 32.95 33.36 33.69 34.07 34.46 35.00 35.29 35.64 36.12 36.43 36.43 36.22 36.04 36.11 36.35 36.60 36.77 36.92 37.14 37.51 37.75 37.96 38.13 38.22 38.22 38.39 38.52 38.83 39.33 39.83 40.52 41.26 42.15 42.85 43.52 44.34 45.16 46.13 46.89 47.47 47.79 47.79 47.52 46.98 46.39 46.30 46.53 47.11 47.97 48.60
30.14 30.63 31.14 31.51 31.42 31.19 30.85 30.74 30.71 30.77 30.91 31.41 32.00 32.21 32.19 32.12 32.11 32.23 32.53 32.96 33.37 33.70 33.93 34.26 34.86 35.37 35.82 36.02 36.09 36.08 35.97 35.88 35.85 35.92 36.05 36.28 36.71 37.05 37.43 37.86 38.18 38.57 38.88 39.02 38.81 38.95 39.08 39.39 39.89 40.44 41.14 41.79 42.45 43.16 43.97 44.83 46.04 46.84 47.34 47.52 47.20 46.84 46.39 46.07 46.21 46.44 46.93 47.70 48.10
29.88 30.12 30.44 30.75 30.81 30.64 30.46 30.34 30.16 30.21 30.50 31.17 31.68 31.77 31.75 31.62 31.74 32.08 32.41 32.81 33.10 33.33 33.67 34.09 34.76 35.36 35.84 35.93 35.82 35.68 35.75 36.04 35.81 35.68 35.69 35.93 36.44 36.98 37.50 38.08 38.52 38.78 39.02 39.26 39.36 39.40 39.48 39.64 39.92 40.38 40.97 41.52 42.18 43.02 43.97 45.05 46.21 46.98 46.93 45.98 45.58 45.17 44.95 45.13 45.76 46.39 46.93 47.25 47.65
29.44 29.71 30.05 30.38 30.67 30.68 30.58 30.31 29.96 29.96 30.23 30.93 31.20 31.14 30.94 30.89 31.16 31.58 31.93 32.32 32.52 32.95 33.54 34.23 34.78 35.40 35.79 35.93 35.75 35.52 35.39 35.34 35.86 35.68 35.27 35.52 36.18 36.93 37.68 38.32 38.59 38.62 38.78 38.99 39.33 39.64 39.89 40.07 40.25 40.56 41.01 41.61 42.45 43.43 44.37 45.36 46.35 46.30 45.44 44.17 43.95 44.04 44.32 44.45 45.13 46.03 46.80 47.25 47.56
28.90 29.19 29.60 30.12 30.49 30.59 30.43 30.09 29.75 29.78 29.99 30.48 30.38 30.00 29.79 29.90 30.31 30.69 31.06 31.45 32.08 32.89 33.69 34.62 35.08 35.51 35.79 35.77 35.65 35.40 35.05 34.69 34.85 34.84 34.93 35.21 35.86 36.68 37.39 37.93 37.99 37.89 37.77 37.98 38.38 38.97 39.69 40.31 40.59 40.94 41.49 42.19 42.98 43.79 44.60 45.64 45.85 45.03 44.04 43.68 43.04 43.09 43.32 43.37 44.14 45.22 46.25 47.16 47.20
28.66 28.74 28.95 29.53 29.98 30.05 29.79 29.45 29.39 29.44 29.64 29.89 29.49 29.03 28.74 28.84 29.40 29.93 30.49 31.19 32.02 32.82 33.52 34.30 34.58 34.91 35.22 35.46 35.27 34.88 34.55 34.20 34.29 34.46 34.66 34.89 35.43 36.03 36.60 37.20 37.33 37.26 37.14 36.98 37.16 37.83 38.70 39.91 40.73 41.40 42.06 42.74 43.30 44.06 44.92 45.81 45.08 43.95 43.09 43.00 43.13 42.64 42.18 42.55 42.87 43.81 44.98 45.94 45.76
28.53 28.57 28.65 29.02 29.39 29.23 29.01 28.76 28.73 28.86 28.96 29.12 28.76 28.26 27.97 28.24 28.84 29.39 30.08 31.05 31.75 32.38 32.86 33.33 33.71 34.22 34.80 35.04 34.73 34.33 33.95 33.68 33.78 33.98 34.29 34.51 34.73 35.10 35.67 36.29 36.71 36.74 36.65 36.46 36.45 36.77 37.52 38.94 40.58 41.51 42.13 42.76 43.30 44.02 44.69 45.32 44.63 43.54 42.54 42.23 43.00 43.00 42.82 42.91 42.73 43.09 43.63 43.99 43.81
27.94 28.04 28.24 28.56 28.64 28.57 28.44 28.26 28.28 28.19 28.26 28.24 27.89 27.69 27.74 28.28 28.67 29.04 29.68 30.63 31.55 32.12 32.38 32.62 33.30 34.07 34.59 34.79 34.27 33.88 33.54 33.25 33.25 33.40 33.71 33.83 34.01 34.20 34.66 35.47 36.10 36.32 36.30 36.15 36.03 36.17 36.89 38.35 40.24 41.59 42.53 43.16 43.57 43.98 44.43 45.01 44.45 43.45 42.55 42.45 42.41 42.36 42.45 42.82 42.82 42.82 42.77 42.77 42.50
27.23 27.29 27.43 27.58 27.71 27.86 27.95 27.76 27.88 27.87 27.78 27.66 27.43 27.46 27.88 28.90 28.82 28.97 29.52 30.62 31.34 31.68 31.82 32.16 32.93 33.58 34.14 34.32 33.95 33.51 33.20 32.98 32.90 32.89 32.98 33.15 33.33 33.46 33.84 34.69 35.51 35.88 35.89 35.76 35.77 36.01 36.63 37.82 39.29 40.62 41.97 43.29 43.83 44.07 44.35 44.74 44.55 43.73 43.09 43.40 42.54 41.77 41.68 42.45 42.59 42.64 42.60 42.46 41.91
26.82 26.76 26.76 26.79 26.94 27.23 27.36 27.07 27.24 27.40 27.40 27.14 27.19 27.10 27.29 27.93 27.98 28.68 29.62 30.54 30.71 30.95 31.35 31.92 32.50 33.09 33.61 34.04 33.68 33.36 33.02 32.69 32.58 32.48 32.33 32.40 32.72 32.95 33.22 33.89 34.89 35.49 35.54 35.31 35.42 35.62 35.99 36.59 37.17 37.95 39.41 42.01 43.48 44.07 44.25 44.47 44.69 44.23 43.73 43.81 43.09 42.49 42.17 42.36 42.46 42.46 42.19 41.73 41.46
26.46 26.39 26.37 26.31 26.43 26.53 26.54 26.33 26.49 26.61 26.66 26.61 26.70 26.70 26.71 26.84 27.44 28.46 29.44 29.79 30.11 30.49 31.03 31.74 32.16 32.81 33.45 33.99 33.54 33.24 32.83 32.30 32.13 31.98 31.83 31.76 31.99 32.33 32.77 33.36 34.44 35.17 35.46 35.14 35.13 35.19 35.19 35.09 35.25 35.76 36.92 38.67 41.01 42.49 43.38 43.92 44.46 44.59 44.36 44.04 43.45 43.09 42.86 42.54 42.46 42.37 42.19 41.69 41.51
26.07 25.98 25.79 25.80 25.78 25.76 25.70 25.61 25.80 25.90 25.94 26.00 26.10 26.21 26.44 26.75 27.49 28.27 28.89 29.05 29.62 30.14 30.72 31.33 32.01 32.72 33.38 33.82 33.40 32.82 32.34 32.07 31.79 31.60 31.35 31.24 31.38 31.73 32.21 32.83 33.93 34.92 35.37 35.11 34.84 34.68 34.47 34.26 34.23 34.50 35.01 35.82 37.39 38.75 39.88 40.71 42.17 43.42 44.23 44.27 43.68 43.45 43.41 43.23 42.95 42.73 42.55 42.37 42.05
25.60 25.45 25.29 25.20 25.09 25.01 24.90 24.84 25.20 25.34 25.36 25.36 25.55 25.78 25.98 26.31 27.28 27.99 28.44 28.53 29.13 29.78 30.37 30.93 31.75 32.72 33.48 33.74 33.18 32.61 32.08 31.81 31.55 31.16 30.86 30.86 30.86 31.08 31.53 32.19 33.36 34.48 35.23 35.28 34.80 34.46 34.13 33.96 33.88 33.84 33.95 34.25 35.00 35.70 36.45 37.23 38.62 40.30 42.06 43.50 43.77 43.82 43.91 43.91 43.68 43.45 43.23 43.09 42.91
24.82 24.76 24.67 24.59 24.40 24.26 24.16 24.18 24.52 24.71 24.81 24.72 24.95 25.17 25.37 25.76 26.78 27.57 28.01 28.15 28.80 29.49 30.19 30.44 31.13 32.17 33.21 33.68 33.14 32.55 32.09 31.74 31.29 30.86 30.53 30.37 30.37 30.50 30.87 31.51 32.44 33.63 34.70 35.27 34.66 34.37 34.10 33.95 33.81 33.64 33.55 33.48 33.86 34.38 34.91 35.49 36.22 37.12 38.23 39.57 41.24 42.55 43.55 44.28 44.32 44.18 43.86 43.64 43.32
23.91 23.99 24.06 23.85 23.65 23.47 23.43 23.53 23.97 24.14 24.07 23.93 24.17 24.42 24.76 25.19 25.98 26.80 27.49 27.74 28.46 29.18 29.75 29.92 30.43 31.51 32.66 33.67 33.30 32.67 32.10 31.65 31.25 30.73 30.31 30.04 29.94 30.08 30.34 30.78 31.56 32.59 33.70 34.77 34.29 34.00 33.75 33.81 33.85 33.73 33.49 33.28 33.40 33.59 34.00 34.54 34.90 35.19 35.36 35.66 36.65 38.31 40.17 41.99 43.24 43.82 44.00 43.86 43.55
23.04 23.15 23.28 23.12 22.84 22.53 22.48 22.90 23.24 23.35 23.25 23.05 23.34 23.71 24.20 24.72 25.16 26.00 26.91 27.58 27.98 28.52 29.09 29.62 30.23 31.15 32.17 33.25 33.23 32.86 32.27 31.74 31.21 30.77 30.42 30.17 30.03 30.02 30.12 30.43 31.08 31.80 32.67 33.93 33.91 33.56 33.32 33.35 33.64 33.69 33.50 33.18 33.13 33.25 33.41 33.77 34.06 34.19 34.37 34.51 34.78 35.37 36.25 37.86 39.76 41.39 42.46 42.87 42.59
22.03 22.25 22.49 22.56 22.17 21.89 21.88 22.55 22.62 22.55 22.48 22.51 22.82 23.29 23.75 24.20 24.50 25.05 25.85 26.89 27.42 27.98 28.53 29.18 29.77 30.50 31.40 32.40 32.70 32.74 32.47 31.79 31.26 30.89 30.73 30.56 30.39 30.26 30.19 30.35 30.80 31.27 31.89 32.94 33.55 33.54 33.21 32.98 33.23 33.28 33.11 33.01 32.89 32.91 33.07 33.19 33.39 33.57 33.67 33.80 34.02 34.30 34.74 35.36 36.80 38.53 40.13 41.06 41.06
21.00 21.42 21.72 21.80 21.69 21.60 21.83 22.40 22.23 22.07 22.13 22.32 22.61 22.95 23.26 23.57 23.87 24.26 24.80 25.74 26.95 27.77 28.38 28.87 29.19 29.75 30.62 31.82 32.16 32.55 32.57 31.98 31.40 31.06 30.95 30.88 30.73 30.48 30.30 30.21 30.43 30.69 31.19 31.95 33.08 33.41 33.24 32.84 32.86 32.74 32.61 32.48 32.46 32.48 32.59 32.74 32.90 33.03 33.13 33.26 33.39 33.57 33.84 34.29 35.18 36.57 38.23 39.88 40.61
20.20 20.66 21.00 21.19 21.22 21.26 21.48 21.86 21.74 21.70 21.89 22.13 22.22 22.36 22.58 22.97 23.23 23.58 24.01 24.74 26.38 27.48 28.29 28.69 28.71 29.10 29.80 30.97 31.62 32.03 32.19 32.09 31.51 31.20 30.95 30.96 30.85 30.61 30.38 30.24 30.14 30.28 30.57 31.18 32.42 33.02 33.08 32.59 32.53 32.34 32.16 31.98 31.84 31.87 31.98 32.09 32.29 32.45 32.58 32.62 32.75 32.89 33.20 33.45 34.04 35.01 36.22 37.88 39.51
19.72 20.17 20.55 20.75 20.79 20.96 21.14 21.45 21.34 21.44 21.54 21.64 21.66 21.70 21.86 22.12 22.51 22.88 23.50 24.47 25.75 26.85 27.69 28.18 28.27 28.61 29.23 30.19 31.01 31.46 31.75 32.06 31.57 31.21 31.02 30.99 30.93 30.82 30.72 30.57 30.17 30.09 30.17 30.56 31.57 32.47 32.89 32.42 32.12 31.88 31.75 31.58 31.30 31.41 31.56 31.68 31.80 31.97 32.09 32.12 32.26 32.39 32.57 32.74 33.00 33.70 34.54 35.56 37.01
19.42 19.89 20.18 20.52 20.49 20.65 20.98 21.22 21.04 21.09 21.19 21.21 21.23 21.20 21.24 21.41 21.71 22.35 23.09 24.11 24.92 25.73 26.64 27.41 27.74 28.14 28.60 29.33 30.16 30.77 31.24 31.51 31.30 31.21 31.12 30.98 30.99 31.06 31.09 30.90 30.32 29.91 29.82 30.00 30.87 32.10 32.98 32.31 31.62 31.39 31.30 30.98 30.85 31.09 31.35 31.49 31.57 31.74 31.79 31.91 32.05 32.18 32.30 32.29 32.41 32.80 33.41 34.24 35.28
19.12 19.51 19.91 20.26 20.08 20.34 20.72 20.62 20.54 20.60 20.73 20.77 20.79 20.73 20.69 20.71 21.17 21.75 22.40 23.13 23.95 24.76 25.68 26.80 27.28 27.63 28.03 28.71 29.41 29.92 30.43 30.57 30.57 30.70 30.85 30.88 30.84 30.93 31.00 30.81 30.30 29.81 29.56 29.69 30.73 32.36 33.21 31.60 30.83 30.58 30.50 30.21 30.50 30.72 30.87 31.10 31.53 31.61 31.64 31.74 31.88 32.00 32.12 32.20 32.28 32.49 32.88 33.62 34.52
18.77 19.21 19.64 19.93 19.38 19.31 19.44 19.61 19.85 20.10 20.21 20.26 20.22 20.25 20.18 20.20 20.66 21.12 21.61 22.04 22.68 23.60 24.67 25.99 26.73 27.15 27.43 27.81 28.30 28.78 29.24 29.52 29.56 29.81 30.16 30.43 30.51 30.60 30.70 30.66 30.29 29.82 29.62 29.90 31.92 34.51 35.27 32.15 30.40 29.59 29.49 29.73 30.14 30.26 30.24 30.71 31.23 31.39 31.46 31.55 31.64 31.78 31.91 32.08 32.29 32.41 32.62 33.01 33.90
18.43 18.86 19.06 18.94 18.68 18.61 18.76 18.95 19.28 19.56 19.76 19.93 19.96 19.90 19.79 19.76 20.12 20.46 20.78 21.05 21.66 22.55 23.64 24.79 25.65 26.34 26.66 26.64 26.93 27.48 28.04 28.58 28.89 29.13 29.41 29.64 29.95 30.18 30.27 30.36 30.17 29.85 29.88 30.85 35.20 37.92 38.29 35.46 33.03 30.85 29.35 29.15 29.75 30.02 30.38 30.96 31.19 31.25 31.27 31.30 31.39 31.53 31.57 31.80 32.09 32.34 32.50 32.75 33.29
18.29 18.31 18.16 18.10 18.00 17.93 17.99 18.36 18.95 19.29 19.49 19.69 19.61 19.48 19.33 19.33 19.71 19.85 19.97 20.18 20.79 21.78 22.80 23.97 24.67 25.71 26.23 25.59 25.54 26.00 26.74 27.39 28.17 28.63 28.89 28.96 29.12 29.42 29.65 29.88 29.84 29.69 30.32 32.94 37.40 38.93 38.42 37.31 36.16 33.89 31.39 29.21 29.55 29.83 30.13 30.44 30.85 31.02 31.05 31.00 31.10 31.13 31.24 31.28 31.66 31.95 32.34 32.55 33.07
17.89 17.76 17.55 17.51 17.27 17.23 17.42 18.05 18.73 19.07 19.25 19.35 19.15 18.98 18.92 19.00 19.17 19.22 19.29 19.53 20.23 21.14 22.27 23.31 23.80 24.87 25.42 24.56 24.40 24.67 25.28 26.22 27.33 28.06 28.40 28.42 28.47 28.72 29.03 29.35 29.62 29.82 31.19 35.00 38.44 38.83 37.94 37.49 36.86 35.58 33.59 30.75 30.00 29.87 29.96 30.13 30.47 30.70 30.73 30.71 30.77 30.83 30.93 30.96 31.25 31.63 32.05 32.34 32.79
17.44 17.34 17.04 16.78 16.59 16.68 17.15 17.80 18.38 18.83 19.12 19.15 18.84 18.75 18.65 18.53 18.45 18.49 18.74 19.04 19.74 20.64 21.63 22.52 23.24 23.67 23.75 23.46 23.54 23.89 24.51 25.38 26.51 27.40 27.96 28.15 28.20 28.40 28.71 29.01 29.26 30.09 32.26 36.41 38.52 38.55 37.77 37.29 36.68 36.01 34.79 32.60 30.64 29.95 29.98 29.89 30.11 30.22 30.27 30.40 30.47 30.57 30.72 30.88 31.09 31.39 31.66 32.01 32.39
16.80 16.64 16.47 16.12 16.20 16.52 16.93 17.40 18.19 18.92 19.33 19.07 18.68 18.40 18.16 17.90 17.89 17.94 18.16 18.49 19.14 20.09 21.08 21.91 22.47 22.54 22.41 22.30 22.85 23.41 24.12 24.81 26.11 27.02 27.51 27.62 27.60 27.95 28.42 28.80 28.87 30.22 32.77 36.76 38.32 38.20 37.59 37.02 36.46 35.94 35.27 34.12 31.49 30.13 29.68 29.77 29.76 29.79 29.93 29.94 29.97 30.16 30.50 30.84 31.05 31.18 31.42 31.82 32.18
16.25 16.10 16.00 15.83 15.98 16.28 16.66 17.15 18.18 19.13 19.60 19.12 18.37 17.72 17.33 17.10 17.17 17.34 17.58 17.97 18.90 20.18 21.28 21.65 21.46 21.22 21.18 21.37 22.49 23.15 23.72 24.57 25.95 26.80 27.15 27.02 27.07 27.43 27.99 28.72 28.54 29.79 32.42 36.35 38.08 38.18 37.42 36.71 36.24 35.80 35.33 34.69 32.10 30.26 29.38 29.56 29.43 29.40 29.34 29.25 29.35 29.57 30.02 30.62 30.82 30.96 31.15 31.50 31.94
15.73 15.69 15.67 15.74 15.87 16.12 16.50 17.01 18.16 19.10 19.47 18.61 17.50 16.85 16.46 16.28 16.38 16.70 17.21 17.94 19.42 20.86 21.65 21.11 20.49 20.33 20.57 21.19 22.36 22.91 23.41 24.45 25.75 26.58 26.80 26.45 26.74 27.09 27.45 27.88 27.90 29.43 32.29 35.95 37.88 38.09 37.33 36.49 36.05 35.67 35.20 34.73 32.11 30.09 29.06 29.30 29.11 28.85 28.54 28.38 28.38 28.66 29.24 30.14 30.72 30.94 30.96 31.07 31.48
15.45 15.45 15.58 15.61 15.66 15.96 16.36 16.78 18.29 19.11 18.93 17.50 16.54 16.07 15.87 15.66 16.04 16.46 17.22 18.50 20.02 20.61 20.41 19.82 19.61 19.76 20.19 20.82 21.98 22.64 23.33 24.49 25.82 26.51 26.70 26.39 25.90 26.06 26.62 27.43 27.29 29.06 32.03 35.56 37.33 37.80 37.30 36.07 35.68 35.38 35.07 34.58 31.82 29.69 28.61 28.97 28.70 28.30 27.90 27.48 27.43 27.65 28.24 29.21 30.26 30.87 31.09 30.93 31.16
15.33 15.33 15.36 15.27 15.55 15.75 16.24 16.86 18.79 19.11 18.20 16.58 16.00 15.66 15.48 15.45 15.86 16.34 17.14 18.60 20.03 20.04 19.41 18.87 19.11 19.35 19.70 20.51 21.57 22.36 23.26 24.68 25.99 26.79 27.07 26.56 25.89 25.79 26.18 26.72 26.66 28.97 32.30 35.10 36.49 37.31 37.16 35.92 35.34 34.98 34.66 34.03 30.90 28.69 27.89 28.61 28.46 28.07 27.58 27.00 26.86 26.95 27.39 28.08 29.36 30.54 31.17 31.10 31.12
15.15 15.15 15.11 15.24 15.54 15.57 16.06 17.37 19.27 18.91 17.46 15.80 15.44 15.31 15.20 15.18 15.37 15.78 16.78 18.75 19.84 19.69 19.10 18.65 19.02 19.39 19.82 20.51 21.40 22.27 23.37 24.90 25.65 26.04 26.13 25.96 25.57 25.58 25.68 25.78 26.06 28.82 32.32 34.51 35.58 36.74 37.18 36.32 35.12 34.60 34.15 33.11 29.77 27.72 27.06 27.87 28.14 27.91 27.45 26.86 26.42 26.38 26.66 27.20 28.26 29.71 30.95 31.50 31.37
14.88 14.89 14.91 15.08 15.21 15.33 16.00 17.75 19.06 18.27 16.54 15.11 14.86 14.84 14.91 14.92 14.96 15.40 16.66 18.95 19.60 19.04 18.35 18.46 19.10 19.58 20.04 20.38 21.54 22.49 23.39 24.14 24.80 25.45 25.85 25.93 25.46 25.29 25.22 25.20 25.61 28.30 31.62 33.63 34.66 36.04 36.95 37.03 35.22 34.41 33.42 31.61 28.55 26.89 26.32 26.63 27.31 27.52 27.31 26.84 26.16 25.80 25.86 26.34 27.28 28.60 30.12 31.60 31.73
14.71 14.63 14.63 14.78 14.84 15.10 16.05 17.88 18.05 16.95 15.40 14.48 14.37 14.35 14.44 14.65 14.91 15.57 16.87 18.98 18.67 17.97 17.46 17.97 18.72 19.26 19.72 20.04 21.10 22.34 23.31 23.58 24.26 25.04 25.62 26.00 25.44 24.98 24.67 24.71 25.02 27.20 30.20 32.61 33.95 35.11 36.14 37.20 35.96 34.54 32.71 30.03 27.35 26.08 25.55 25.31 25.86 26.40 26.74 26.67 26.04 25.47 25.13 25.30 26.17 27.43 29.02 30.95 32.11
14.55 14.46 14.39 14.54 14.56 15.07 16.00 17.58 16.79 15.48 14.34 13.99 14.00 13.97 14.08 14.36 14.74 15.53 16.68 18.26 17.06 16.57 16.76 17.48 18.28 18.92 19.54 20.03 20.79 21.88 22.97 23.84 24.31 24.83 25.37 25.86 25.40 24.88 24.56 24.32 24.24 25.79 28.45 31.51 33.21 34.33 35.37 36.73 36.74 35.08 32.30 28.86 26.48 25.37 24.97 24.54 24.54 24.79 25.25 25.72 25.80 25.40 24.96 24.76 25.33 26.25 27.70 29.72 32.70
14.53 14.42 14.40 14.35 14.33 14.84 15.61 16.51 15.49 14.42 13.68 13.59 13.81 13.96 14.20 14.38 14.63 15.36 16.44 17.72 16.27 15.95 16.44 17.31 18.25 19.12 19.88 20.67 21.41 22.17 23.05 24.04 24.74 24.92 24.91 24.98 24.99 24.96 24.65 23.95 23.65 24.77 27.06 30.37 32.38 33.69 34.69 35.59 36.58 35.75 33.04 28.75 26.34 25.19 24.74 24.39 23.90 23.67 23.72 24.21 24.98 25.31 25.19 24.89 24.99 25.42 26.55 28.47 33.36
14.60 14.48 14.37 14.21 14.23 14.58 15.05 15.24 14.55 13.92 13.55 13.58 13.72 13.89 14.15 14.39 14.77 15.47 16.36 16.95 15.95 16.04 16.65 17.37 18.37 19.36 20.44 21.81 22.17 22.50 23.04 24.06 24.61 24.83 24.76 24.33 24.98 25.63 25.49 23.79 23.19 24.13 26.42 29.74 31.79 33.22 34.23 34.97 36.13 36.25 34.25 29.18 26.67 25.48 24.94 24.35 23.65 23.32 23.13 23.36 24.00 24.60 24.93 24.98 25.02 25.20 25.75 26.95 32.41
14.63 14.53 14.30 14.04 14.21 14.54 14.82 14.68 14.20 13.91 13.71 13.66 13.48 13.65 14.07 14.63 15.19 15.74 16.02 15.95 15.66 16.21 17.08 17.85 18.59 19.46 20.65 22.32 22.35 22.55 22.92 23.72 23.86 24.14 24.34 24.45 25.15 26.20 26.26 23.84 22.97 23.72 25.82 29.06 31.45 33.03 33.98 34.69 35.66 36.19 34.59 29.12 26.87 25.86 25.31 24.48 23.68 23.16 22.99 23.10 23.61 24.08 24.50 24.86 25.18 25.45 25.74 26.03 29.18
14.58 14.44 14.34 14.16 14.34 14.62 14.76 14.46 14.09 13.98 13.88 13.73 13.50 14.05 14.90 15.50 15.14 14.88 14.78 14.82 15.29 16.22 17.38 18.17 18.69 19.36 20.38 21.91 22.16 22.45 22.75 23.00 23.15 23.32 23.65 24.22 24.54 25.35 25.30 23.46 22.93 23.40 25.03 27.93 31.19 32.98 34.02 34.71 35.44 36.06 35.08 30.93 27.28 25.83 25.35 24.68 23.67 22.98 22.67 22.79 23.30 23.82 24.29 24.71 25.27 25.61 25.88 25.99 26.72
MSLP
1027.24 1026.96 1026.68 1026.36 1026.08 1025.88 1025.64 1025.36 1025.16 1024.96 1024.72 1024.48 1024.16 1023.80 1023.52 1023.24 1022.92 1022.60 1022.36 1022.08 1021.80 1021.52 1021.16 1020.84 1020.52 1020.16 1019.84 1019.52 1019.28 1018.96 1018.64 1018.36 1018.04 1017.72 1017.44 1017.12 1016.80 1016.48 1016.16 1015.84 1015.56 1015.28 1015.04 1014.76 1014.52 1014.28 1014.04 1013.80 1013.52 1013.24 1012.88 1012.52 1012.12 1011.80 1011.48 1011.12 1010.84 1010.56 1010.32 1010.08 1009.84 1009.64 1009.52 1009.40 1009.32 1009.20 1009.08 1008.92 1008.64
1027.24 1027.04 1026.80 1026.48 1026.20 1025.96 1025.76 1025.52 1025.24 1025.08 1024.84 1024.60 1024.24 1023.92 1023.64 1023.36 1023.04 1022.72 1022.48 1022.20 1021.92 1021.64 1021.28 1020.92 1020.56 1020.24 1019.88 1019.52 1019.24 1018.96 1018.68 1018.36 1018.04 1017.68 1017.36 1017.04 1016.68 1016.36 1016.04 1015.72 1015.36 1015.08 1014.80 1014.52 1014.24 1013.96 1013.72 1013.52 1013.24 1012.96 1012.64 1012.24 1011.92 1011.56 1011.24 1010.92 1010.64 1010.36 1010.08 1009.80 1009.60 1009.44 1009.36 1009.24 1009.08 1009.00 1008.84 1008.64 1008.36
1027.36 1027.08 1026.80 1026.52 1026.28 1026.08 1025.84 1025.60 1025.36 1025.20 1024.96 1024.64 1024.32 1024.00 1023.72 1023.44 1023.16 1022.84 1022.56 1022.28 1022.00 1021.68 1021.36 1020.96 1020.56 1020.24 1019.84 1019.52 1019.24 1019.00 1018.72 1018.36 1018.04 1017.68 1017.32 1016.96 1016.64 1016.28 1015.92 1015.60 1015.24 1014.88 1014.60 1014.24 1013.96 1013.72 1013.48 1013.24 1013.00 1012.68 1012.36 1012.04 1011.72 1011.36 1011.00 1010.64 1010.44 1010.16 1009.84 1009.56 1009.44 1009.36 1009.24 1009.08 1008.96 1008.76 1008.56 1008.32 1008.04
1027.44 1027.20 1026.92 1026.64 1026.36 1026.20 1025.96 1025.76 1025.52 1025.24 1024.96 1024.64 1024.36 1024.08 1023.80 1023.56 1023.28 1022.96 1022.64 1022.32 1022.00 1021.72 1021.40 1021.04 1020.64 1020.20 1019.84 1019.52 1019.24 1019.00 1018.72 1018.40 1018.08 1017.68 1017.32 1016.96 1016.56 1016.20 1015.80 1015.44 1015.08 1014.76 1014.40 1014.08 1013.72 1013.40 1013.12 1012.92 1012.68 1012.40 1012.08 1011.80 1011.48 1011.12 1010.80 1010.48 1010.16 1009.84 1009.60 1009.44 1009.36 1009.24 1009.08 1008.92 1008.72 1008.52 1008.24 1007.96 1007.64
1027.52 1027.28 1027.04 1026.76 1026.52 1026.32 1026.12 1025.92 1025.64 1025.36 1025.08 1024.76 1024.40 1024.12 1023.92 1023.64 1023.36 1023.08 1022.72 1022.36 1022.04 1021.76 1021.44 1021.08 1020.64 1020.24 1019.92 1019.60 1019.28 1018.96 1018.68 1018.36 1018.08 1017.72 1017.36 1016.96 1016.52 1016.12 1015.72 1015.36 1015.04 1014.68 1014.32 1013.92 1013.60 1013.24 1012.88 1012.60 1012.36 1012.08 1011.80 1011.52 1011.24 1010.88 1010.52 1010.24 1009.96 1009.68 1009.52 1009.36 1009.24 1009.08 1008.88 1008.64 1008.48 1008.24 1007.96 1007.68 1007.40
1027.60 1027.36 1027.16 1026.88 1026.64 1026.40 1026.24 1026.00 1025.80 1025.52 1025.16 1024.80 1024.52 1024.28 1024.04 1023.80 1023.48 1023.12 1022.80 1022.44 1022.12 1021.80 1021.44 1021.04 1020.64 1020.24 1019.92 1019.56 1019.24 1018.96 1018.68 1018.36 1018.08 1017.76 1017.36 1016.96 1016.56 1016.12 1015.72 1015.36 1014.96 1014.64 1014.32 1013.92 1013.56 1013.16 1012.72 1012.36 1012.08 1011.80 1011.48 1011.24 1010.96 1010.60 1010.28 1010.04 1009.80 1009.56 1009.44 1009.28 1009.08 1008.92 1008.76 1008.56 1008.36 1008.08 1007.80 1007.52 1007.24
1027.80 1027.52 1027.24 1026.96 1026.72 1026.52 1026.32 1026.08 1025.84 1025.56 1025.24 1024.92 1024.60 1024.36 1024.12 1023.88 1023.56 1023.24 1022.88 1022.52 1022.12 1021.80 1021.40 1021.04 1020.64 1020.32 1019.92 1019.60 1019.28 1019.00 1018.72 1018.44 1018.12 1017.80 1017.44 1017.00 1016.64 1016.20 1015.80 1015.36 1014.96 1014.64 1014.32 1013.92 1013.56 1013.12 1012.72 1012.32 1011.92 1011.52 1011.20 1010.96 1010.64 1010.32 1010.04 1009.80 1009.64 1009.44 1009.28 1009.12 1008.96 1008.80 1008.64 1008.52 1008.36 1008.08 1007.80 1007.48 1007.24
1027.92 1027.64 1027.40 1027.12 1026.88 1026.64 1026.40 1026.24 1025.96 1025.64 1025.28 1024.96 1024.68 1024.48 1024.24 1023.92 1023.56 1023.24 1022.84 1022.52 1022.16 1021.80 1021.48 1021.08 1020.72 1020.36 1020.04 1019.64 1019.36 1019.08 1018.80 1018.52 1018.16 1017.80 1017.52 1017.16 1016.76 1016.32 1015.88 1015.40 1015.00 1014.64 1014.28 1013.92 1013.56 1013.20 1012.80 1012.32 1011.84 1011.40 1011.04 1010.68 1010.36 1010.08 1009.80 1009.64 1009.44 1009.32 1009.16 1009.04 1008.88 1008.72 1008.60 1008.48 1008.36 1008.24 1007.96 1007.68 1007.44
1027.92 1027.72 1027.52 1027.24 1027.04 1026.80 1026.52 1026.32 1026.04 1025.72 1025.36 1025.08 1024.80 1024.60 1024.32 1023.96 1023.64 1023.24 1022.88 1022.52 1022.20 1021.88 1021.56 1021.20 1020.80 1020.40 1020.08 1019.72 1019.44 1019.16 1018.92 1018.64 1018.28 1017.92 1017.60 1017.28 1016.84 1016.44 1016.00 1015.52 1015.08 1014.64 1014.32 1014.00 1013.64 1013.24 1012.84 1012.36 1011.84 1011.36 1010.92 1010.52 1010.16 1009.80 1009.56 1009.44 1009.32 1009.20 1009.08 1008.96 1008.80 1008.64 1008.56 1008.52 1008.44 1008.36 1008.20 1007.96 1007.76
1028.08 1027.84 1027.60 1027.36 1027.12 1026.88 1026.64 1026.36 1026.08 1025.76 1025.44 1025.20 1024.92 1024.64 1024.36 1024.00 1023.68 1023.36 1022.96 1022.64 1022.24 1021.92 1021.60 1021.24 1020.80 1020.40 1020.08 1019.72 1019.48 1019.24 1018.96 1018.72 1018.40 1018.08 1017.72 1017.36 1016.96 1016.56 1016.12 1015.64 1015.24 1014.80 1014.40 1014.08 1013.76 1013.36 1012.92 1012.48 1012.00 1011.48 1010.96 1010.44 1010.00 1009.64 1009.44 1009.32 1009.24 1009.08 1008.96 1008.80 1008.68 1008.64 1008.56 1008.52 1008.48 1008.40 1008.36 1008.20 1007.96
1028.24 1028.00 1027.80 1027.52 1027.28 1027.00 1026.72 1026.44 1026.08 1025.80 1025.52 1025.24 1024.96 1024.64 1024.36 1024.08 1023.72 1023.36 1023.04 1022.68 1022.32 1021.92 1021.60 1021.24 1020.84 1020.44 1020.08 1019.80 1019.52 1019.28 1019.08 1018.84 1018.52 1018.24 1017.84 1017.48 1017.08 1016.72 1016.36 1015.88 1015.40 1014.96 1014.60 1014.24 1013.88 1013.52 1013.12 1012.72 1012.24 1011.72 1011.16 1010.60 1010.08 1009.68 1009.44 1009.24 1009.08 1008.96 1008.80 1008.64 1008.56 1008.52 1008.48 1008.48 1008.44 1008.40 1008.36 1008.24 1008.08
1028.36 1028.16 1027.92 1027.68 1027.44 1027.16 1026.84 1026.52 1026.16 1025.84 1025.52 1025.32 1025.00 1024.72 1024.40 1024.12 1023.80 1023.44 1023.08 1022.68 1022.36 1021.96 1021.64 1021.24 1020.92 1020.52 1020.16 1019.88 1019.64 1019.36 1019.12 1018.88 1018.60 1018.28 1017.92 1017.56 1017.20 1016.84 1016.48 1016.00 1015.56 1015.12 1014.76 1014.40 1014.08 1013.76 1013.40 1013.00 1012.56 1012.08 1011.52 1010.96 1010.48 1010.08 1009.72 1009.40 1009.08 1008.84 1008.64 1008.52 1008.44 1008.40 1008.36 1008.36 1008.36 1008.36 1008.28 1008.24 1008.08
1028.52 1028.28 1028.08 1027.84 1027.56 1027.28 1026.96 1026.64 1026.28 1025.92 1025.64 1025.36 1025.08 1024.80 1024.52 1024.20 1023.84 1023.48 1023.08 1022.72 1022.36 1022.04 1021.64 1021.32 1020.96 1020.60 1020.24 1019.96 1019.72 1019.48 1019.24 1018.96 1018.64 1018.36 1018.04 1017.64 1017.32 1016.96 1016.56 1016.16 1015.76 1015.32 1014.92 1014.60 1014.32 1014.00 1013.64 1013.24 1012.84 1012.40 1011.92 1011.48 1011.04 1010.64 1010.28 1009.84 1009.36 1008.96 1008.64 1008.40 1008.32 1008.28 1008.24 1008.24 1008.24 1008.24 1008.20 1008.12 1008.04
1028.64 1028.44 1028.24 1028.00 1027.72 1027.44 1027.08 1026.80 1026.44 1026.08 1025.80 1025.52 1025.24 1024.96 1024.64 1024.32 1023.92 1023.60 1023.24 1022.84 1022.48 1022.08 1021.72 1021.36 1021.04 1020.64 1020.32 1020.00 1019.80 1019.56 1019.32 1019.04 1018.72 1018.40 1018.08 1017.72 1017.40 1017.04 1016.64 1016.32 1015.92 1015.52 1015.08 1014.80 1014.52 1014.24 1013.88 1013.52 1013.08 1012.68 1012.28 1011.88 1011.52 1011.08 1010.68 1010.32 1009.84 1009.40 1008.96 1008.56 1008.32 1008.16 1008.08 1008.04 1008.04 1008.04 1008.04 1008.04 1008.00
1028.80 1028.60 1028.36 1028.16 1027.88 1027.60 1027.28 1026.96 1026.64 1026.28 1025.96 1025.68 1025.40 1025.08 1024.80 1024.44 1024.08 1023.72 1023.36 1022.96 1022.56 1022.20 1021.84 1021.48 1021.08 1020.72 1020.36 1020.04 1019.80 1019.64 1019.36 1019.08 1018.76 1018.44 1018.08 1017.72 1017.44 1017.12 1016.80 1016.44 1016.08 1015.68 1015.28 1014.96 1014.72 1014.44 1014.12 1013.72 1013.36 1012.96 1012.60 1012.24 1011.84 1011.44 1011.08 1010.68 1010.32 1009.92 1009.56 1009.16 1008.76 1008.40 1008.20 1007.96 1007.88 1007.84 1007.80 1007.84 1007.84
1028.96 1028.72 1028.52 1028.28 1028.00 1027.76 1027.48 1027.20 1026.84 1026.52 1026.24 1025.92 1025.60 1025.24 1024.92 1024.56 1024.24 1023.84 1023.48 1023.08 1022.64 1022.28 1021.92 1021.60 1021.24 1020.80 1020.36 1020.04 1019.80 1019.60 1019.36 1019.04 1018.76 1018.44 1018.12 1017.80 1017.52 1017.20 1016.88 1016.56 1016.24 1015.88 1015.52 1015.12 1014.84 1014.60 1014.32 1013.92 1013.56 1013.20 1012.84 1012.52 1012.12 1011.76 1011.40 1011.08 1010.72 1010.36 1010.08 1009.72 1009.36 1009.04 1008.64 1008.32 1008.00 1007.80 1007.64 1007.60 1007.64
1029.08 1028.88 1028.64 1028.40 1028.16 1027.92 1027.64 1027.36 1027.08 1026.76 1026.40 1026.08 1025.72 1025.40 1025.08 1024.72 1024.36 1024.04 1023.64 1023.24 1022.80 1022.40 1022.04 1021.68 1021.32 1020.88 1020.48 1020.08 1019.84 1019.60 1019.36 1019.08 1018.80 1018.52 1018.20 1017.92 1017.60 1017.28 1017.00 1016.68 1016.40 1016.08 1015.72 1015.32 1015.04 1014.76 1014.48 1014.16 1013.76 1013.36 1013.00 1012.72 1012.40 1012.08 1011.72 1011.40 1011.08 1010.80 1010.44 1010.12 1009.80 1009.52 1009.20 1008.80 1008.44 1008.08 1007.80 1007.56 1007.52
1029.28 1029.04 1028.80 1028.52 1028.28 1028.04 1027.80 1027.52 1027.20 1026.88 1026.56 1026.24 1025.88 1025.52 1025.20 1024.84 1024.52 1024.20 1023.80 1023.36 1022.96 1022.52 1022.12 1021.76 1021.36 1021.00 1020.60 1020.24 1019.92 1019.64 1019.40 1019.16 1018.84 1018.56 1018.28 1017.96 1017.68 1017.36 1017.08 1016.80 1016.52 1016.24 1015.88 1015.52 1015.16 1014.92 1014.64 1014.32 1013.96 1013.52 1013.16 1012.84 1012.56 1012.32 1012.00 1011.72 1011.44 1011.16 1010.84 1010.52 1010.20 1009.88 1009.56 1009.24 1008.92 1008.60 1008.24 1007.84 1007.64
1029.44 1029.20 1028.92 1028.68 1028.40 1028.16 1027.88 1027.60 1027.28 1027.00 1026.68 1026.36 1026.00 1025.64 1025.28 1024.96 1024.64 1024.28 1023.92 1023.52 1023.08 1022.64 1022.28 1021.88 1021.52 1021.08 1020.72 1020.36 1020.00 1019.72 1019.48 1019.24 1018.96 1018.64 1018.36 1018.04 1017.72 1017.40 1017.08 1016.80 1016.52 1016.24 1015.96 1015.64 1015.24 1015.00 1014.76 1014.52 1014.12 1013.76 1013.36 1012.96 1012.68 1012.48 1012.24 1011.96 1011.72 1011.44 1011.16 1010.88 1010.52 1010.24 1009.92 1009.64 1009.40 1009.12 1008.76 1008.32 1007.96
1029.64 1029.36 1029.08 1028.84 1028.56 1028.24 1027.96 1027.68 1027.36 1027.08 1026.76 1026.44 1026.08 1025.72 1025.36 1025.04 1024.72 1024.36 1024.00 1023.64 1023.20 1022.80 1022.36 1022.00 1021.64 1021.24 1020.84 1020.44 1020.08 1019.80 1019.52 1019.32 1019.04 1018.68 1018.36 1018.08 1017.76 1017.44 1017.12 1016.80 1016.52 1016.24 1015.92 1015.64 1015.32 1015.08 1014.84 1014.60 1014.28 1013.92 1013.56 1013.20 1012.88 1012.64 1012.40 1012.20 1011.96 1011.72 1011.48 1011.20 1010.88 1010.60 1010.36 1010.08 1009.88 1009.64 1009.36 1008.96 1008.52
1029.80 1029.52 1029.24 1028.96 1028.64 1028.36 1028.08 1027.80 1027.52 1027.16 1026.80 1026.48 1026.12 1025.80 1025.48 1025.12 1024.76 1024.40 1024.08 1023.72 1023.32 1022.88 1022.48 1022.08 1021.76 1021.36 1020.96 1020.56 1020.24 1019.88 1019.60 1019.36 1019.08 1018.80 1018.48 1018.08 1017.80 1017.52 1017.20 1016.92 1016.56 1016.24 1015.92 1015.60 1015.32 1015.08 1014.88 1014.68 1014.40 1014.08 1013.76 1013.40 1013.08 1012.84 1012.64 1012.44 1012.24 1011.96 1011.76 1011.52 1011.24 1010.96 1010.68 1010.44 1010.24 1010.08 1009.84 1009.56 1009.08
1029.92 1029.64 1029.36 1029.08 1028.76 1028.48 1028.20 1027.88 1027.52 1027.24 1026.88 1026.52 1026.20 1025.88 1025.52 1025.20 1024.84 1024.52 1024.20 1023.80 1023.40 1023.00 1022.60 1022.20 1021.84 1021.52 1021.12 1020.76 1020.36 1020.04 1019.72 1019.40 1019.16 1018.84 1018.52 1018.20 1017.88 1017.56 1017.24 1016.96 1016.64 1016.24 1015.88 1015.52 1015.28 1015.04 1014.84 1014.68 1014.52 1014.24 1013.92 1013.64 1013.32 1013.08 1012.84 1012.64 1012.44 1012.24 1012.00 1011.76 1011.48 1011.20 1010.96 1010.72 1010.56 1010.40 1010.20 1009.92 1009.52
1030.00 1029.72 1029.44 1029.12 1028.80 1028.52 1028.24 1027.92 1027.60 1027.24 1026.88 1026.52 1026.24 1025.92 1025.60 1025.24 1024.96 1024.60 1024.24 1023.88 1023.52 1023.08 1022.68 1022.28 1021.92 1021.56 1021.24 1020.92 1020.56 1020.20 1019.84 1019.52 1019.20 1018.84 1018.52 1018.24 1017.92 1017.64 1017.32 1016.96 1016.64 1016.32 1015.92 1015.56 1015.24 1014.96 1014.76 1014.68 1014.52 1014.32 1014.08 1013.80 1013.52 1013.24 1013.08 1012.88 1012.68 1012.48 1012.24 1011.96 1011.68 1011.40 1011.16 1010.96 1010.80 1010.64 1010.40 1010.16 1009.84
1030.08 1029.76 1029.48 1029.16 1028.84 1028.56 1028.28 1027.92 1027.60 1027.24 1026.92 1026.60 1026.28 1025.96 1025.64 1025.36 1025.04 1024.64 1024.28 1023.92 1023.56 1023.24 1022.80 1022.40 1022.04 1021.68 1021.36 1021.00 1020.64 1020.36 1020.00 1019.64 1019.24 1018.92 1018.56 1018.24 1017.92 1017.64 1017.36 1017.04 1016.68 1016.36 1016.08 1015.68 1015.20 1014.76 1014.56 1014.60 1014.52 1014.36 1014.16 1013.92 1013.68 1013.44 1013.24 1013.04 1012.88 1012.68 1012.48 1012.24 1011.92 1011.64 1011.40 1011.20 1011.04 1010.88 1010.68 1010.48 1010.24
1030.08 1029.80 1029.48 1029.20 1028.84 1028.56 1028.28 1027.92 1027.64 1027.32 1026.96 1026.64 1026.36 1026.04 1025.72 1025.40 1025.08 1024.76 1024.40 1024.04 1023.68 1023.32 1022.92 1022.52 1022.16 1021.80 1021.40 1021.08 1020.76 1020.44 1020.12 1019.76 1019.40 1019.04 1018.64 1018.32 1018.00 1017.68 1017.40 1017.08 1016.76 1016.48 1016.16 1015.72 1015.08 1014.60 1014.36 1014.36 1014.36 1014.36 1014.24 1014.08 1013.84 1013.60 1013.36 1013.20 1013.08 1012.96 1012.76 1012.52 1012.24 1011.92 1011.68 1011.48 1011.28 1011.16 1011.00 1010.80 1010.60
1030.08 1029.80 1029.48 1029.20 1028.88 1028.60 1028.28 1027.96 1027.64 1027.36 1027.08 1026.72 1026.40 1026.08 1025.80 1025.48 1025.20 1024.88 1024.52 1024.16 1023.80 1023.44 1023.04 1022.64 1022.28 1021.88 1021.52 1021.24 1020.88 1020.56 1020.24 1019.92 1019.52 1019.20 1018.84 1018.48 1018.12 1017.80 1017.48 1017.20 1016.88 1016.60 1016.28 1015.80 1015.12 1014.64 1014.36 1014.24 1014.24 1014.28 1014.28 1014.20 1014.00 1013.80 1013.56 1013.40 1013.32 1013.12 1012.96 1012.76 1012.52 1012.24 1012.00 1011.80 1011.56 1011.36 1011.24 1011.08 1010.88
1030.04 1029.76 1029.48 1029.20 1028.92 1028.64 1028.32 1028.00 1027.68 1027.36 1027.08 1026.72 1026.44 1026.16 1025.88 1025.56 1025.24 1024.96 1024.60 1024.28 1023.92 1023.56 1023.16 1022.76 1022.40 1022.08 1021.72 1021.40 1021.08 1020.72 1020.36 1020.08 1019.72 1019.36 1018.96 1018.64 1018.32 1017.96 1017.64 1017.28 1017.00 1016.76 1016.44 1015.92 1015.24 1014.76 1014.52 1014.36 1014.28 1014.24 1014.24 1014.24 1014.12 1014.00 1013.84 1013.64 1013.52 1013.36 1013.24 1013.00 1012.80 1012.56 1012.36 1012.08 1011.88 1011.68 1011.52 1011.32 1011.08
1030.08 1029.80 1029.52 1029.16 1028.92 1028.64 1028.32 1027.96 1027.64 1027.36 1027.08 1026.76 1026.52 1026.24 1025.92 1025.64 1025.36 1025.08 1024.72 1024.36 1024.04 1023.64 1023.24 1022.88 1022.56 1022.24 1021.92 1021.64 1021.28 1020.92 1020.56 1020.24 1019.80 1019.44 1019.08 1018.72 1018.40 1018.12 1017.80 1017.44 1017.16 1016.92 1016.52 1016.04 1015.44 1014.96 1014.64 1014.56 1014.44 1014.36 1014.32 1014.32 1014.28 1014.20 1014.08 1013.92 1013.80 1013.64 1013.48 1013.28 1013.08 1012.84 1012.64 1012.44 1012.20 1011.96 1011.76 1011.56 1011.36
1030.12 1029.80 1029.52 1029.20 1028.96 1028.64 1028.32 1028.00 1027.68 1027.40 1027.08 1026.80 1026.56 1026.32 1026.04 1025.72 1025.40 1025.12 1024.80 1024.48 1024.08 1023.72 1023.36 1023.04 1022.72 1022.44 1022.16 1021.80 1021.44 1021.08 1020.68 1020.32 1019.92 1019.56 1019.16 1018.80 1018.52 1018.24 1017.92 1017.60 1017.32 1017.00 1016.60 1016.08 1015.60 1015.20 1014.92 1014.76 1014.64 1014.48 1014.40 1014.40 1014.44 1014.36 1014.28 1014.16 1014.04 1013.92 1013.72 1013.56 1013.36 1013.20 1012.96 1012.72 1012.52 1012.28 1012.08 1011.84 1011.64
1030.16 1029.88 1029.56 1029.24 1028.96 1028.64 1028.36 1028.04 1027.72 1027.44 1027.12 1026.84 1026.64 1026.40 1026.08 1025.80 1025.52 1025.24 1024.92 1024.56 1024.20 1023.84 1023.52 1023.24 1022.96 1022.64 1022.32 1021.96 1021.60 1021.20 1020.80 1020.44 1020.08 1019.64 1019.24 1018.92 1018.64 1018.36 1018.08 1017.76 1017.52 1017.20 1016.76 1016.16 1015.68 1015.32 1015.08 1014.88 1014.76 1014.64 1014.60 1014.52 1014.56 1014.56 1014.52 1014.36 1014.32 1014.16 1014.00 1013.80 1013.64 1013.48 1013.24 1012.96 1012.80 1012.56 1012.36 1012.12 1011.92
1030.20 1029.92 1029.60 1029.32 1029.04 1028.68 1028.36 1028.08 1027.80 1027.48 1027.20 1026.96 1026.72 1026.48 1026.24 1025.92 1025.64 1025.36 1025.08 1024.72 1024.36 1023.92 1023.64 1023.36 1023.08 1022.76 1022.40 1022.08 1021.68 1021.32 1020.96 1020.52 1020.12 1019.72 1019.36 1019.08 1018.76 1018.48 1018.24 1017.92 1017.68 1017.36 1016.92 1016.36 1015.84 1015.48 1015.24 1015.04 1014.96 1014.88 1014.80 1014.80 1014.80 1014.80 1014.72 1014.64 1014.52 1014.40 1014.28 1014.12 1013.92 1013.72 1013.52 1013.28 1013.04 1012.84 1012.64 1012.44 1012.24
1030.24 1029.92 1029.64 1029.36 1029.08 1028.76 1028.44 1028.12 1027.80 1027.52 1027.24 1027.08 1026.84 1026.60 1026.32 1026.08 1025.80 1025.52 1025.20 1024.80 1024.40 1024.04 1023.68 1023.44 1023.12 1022.80 1022.44 1022.12 1021.76 1021.40 1021.04 1020.64 1020.24 1019.84 1019.52 1019.20 1018.92 1018.64 1018.36 1018.12 1017.88 1017.52 1017.08 1016.52 1016.08 1015.68 1015.36 1015.20 1015.12 1015.08 1015.04 1015.00 1015.04 1015.00 1014.96 1014.80 1014.72 1014.60 1014.48 1014.32 1014.16 1013.96 1013.76 1013.52 1013.32 1013.08 1012.92 1012.76 1012.60
1030.28 1030.00 1029.72 1029.44 1029.12 1028.80 1028.48 1028.12 1027.80 1027.52 1027.36 1027.20 1026.96 1026.68 1026.44 1026.16 1025.88 1025.60 1025.28 1024.88 1024.48 1024.12 1023.84 1023.60 1023.28 1022.96 1022.64 1022.24 1021.88 1021.52 1021.12 1020.76 1020.36 1019.96 1019.60 1019.28 1019.00 1018.76 1018.52 1018.28 1018.08 1017.72 1017.24 1016.68 1016.28 1015.92 1015.56 1015.36 1015.32 1015.24 1015.24 1015.24 1015.28 1015.28 1015.20 1015.04 1014.92 1014.76 1014.60 1014.48 1014.32 1014.16 1013.96 1013.76 1013.56 1013.36 1013.20 1013.04 1012.92
1030.28 1030.04 1029.80 1029.52 1029.20 1028.88 1028.52 1028.16 1027.80 1027.60 1027.44 1027.28 1027.04 1026.80 1026.56 1026.28 1025.96 1025.64 1025.36 1024.96 1024.64 1024.32 1024.04 1023.80 1023.48 1023.12 1022.80 1022.44 1022.08 1021.64 1021.24 1020.84 1020.52 1020.16 1019.80 1019.40 1019.08 1018.80 1018.60 1018.44 1018.24 1017.92 1017.44 1016.96 1016.52 1016.12 1015.80 1015.64 1015.48 1015.40 1015.40 1015.44 1015.52 1015.52 1015.40 1015.28 1015.12 1014.96 1014.80 1014.64 1014.48 1014.28 1014.12 1013.92 1013.76 1013.56 1013.40 1013.24 1013.16
1030.36 1030.12 1029.84 1029.60 1029.28 1028.96 1028.64 1028.24 1027.88 1027.68 1027.56 1027.36 1027.16 1026.88 1026.64 1026.40 1026.08 1025.80 1025.52 1025.12 1024.80 1024.48 1024.16 1023.84 1023.56 1023.24 1022.88 1022.52 1022.16 1021.76 1021.36 1020.96 1020.64 1020.32 1019.92 1019.56 1019.24 1018.96 1018.72 1018.52 1018.36 1018.08 1017.64 1017.20 1016.76 1016.36 1016.00 1015.80 1015.64 1015.56 1015.56 1015.64 1015.68 1015.68 1015.60 1015.52 1015.36 1015.16 1015.00 1014.80 1014.64 1014.48 1014.32 1014.12 1013.92 1013.72 1013.56 1013.40 1013.32
1030.52 1030.24 1029.96 1029.64 1029.36 1029.08 1028.72 1028.28 1028.00 1027.84 1027.72 1027.52 1027.24 1027.00 1026.72 1026.44 1026.20 1025.92 1025.64 1025.24 1024.92 1024.60 1024.24 1023.92 1023.56 1023.24 1022.92 1022.56 1022.24 1021.84 1021.52 1021.12 1020.80 1020.44 1020.08 1019.76 1019.40 1019.08 1018.80 1018.64 1018.48 1018.24 1017.84 1017.40 1017.00 1016.52 1016.20 1015.92 1015.76 1015.64 1015.64 1015.72 1015.80 1015.80 1015.72 1015.64 1015.52 1015.36 1015.20 1015.00 1014.84 1014.68 1014.52 1014.32 1014.12 1013.92 1013.68 1013.52 1013.36
1030.60 1030.36 1030.08 1029.80 1029.52 1029.16 1028.80 1028.44 1028.20 1028.00 1027.84 1027.64 1027.36 1027.16 1026.92 1026.60 1026.28 1026.00 1025.72 1025.36 1025.08 1024.72 1024.36 1024.00 1023.64 1023.32 1022.96 1022.64 1022.32 1021.96 1021.64 1021.28 1020.92 1020.60 1020.28 1019.92 1019.64 1019.28 1018.96 1018.76 1018.60 1018.36 1018.04 1017.64 1017.20 1016.76 1016.36 1016.04 1015.80 1015.68 1015.68 1015.80 1015.84 1015.84 1015.80 1015.76 1015.68 1015.56 1015.36 1015.20 1015.04 1014.84 1014.68 1014.52 1014.32 1014.12 1013.92 1013.64 1013.44
1030.64 1030.40 1030.16 1029.88 1029.60 1029.28 1028.96 1028.60 1028.36 1028.20 1028.00 1027.76 1027.52 1027.24 1027.00 1026.72 1026.40 1026.12 1025.84 1025.52 1025.28 1024.96 1024.56 1024.16 1023.76 1023.44 1023.08 1022.76 1022.40 1022.04 1021.72 1021.36 1021.04 1020.72 1020.44 1020.16 1019.84 1019.52 1019.20 1018.96 1018.76 1018.52 1018.24 1017.80 1017.36 1016.96 1016.56 1016.16 1015.88 1015.76 1015.76 1015.88 1015.92 1015.92 1015.92 1015.88 1015.80 1015.68 1015.52 1015.36 1015.20 1015.04 1014.84 1014.68 1014.52 1014.36 1014.12 1013.88 1013.56
1030.72 1030.48 1030.24 1029.96 1029.68 1029.36 1029.04 1028.76 1028.60 1028.40 1028.16 1027.88 1027.64 1027.36 1027.08 1026.80 1026.52 1026.24 1025.96 1025.72 1025.48 1025.12 1024.76 1024.28 1023.92 1023.56 1023.20 1022.80 1022.44 1022.08 1021.80 1021.48 1021.20 1020.92 1020.64 1020.36 1020.08 1019.76 1019.44 1019.24 1018.96 1018.72 1018.40 1018.00 1017.60 1017.16 1016.76 1016.36 1016.04 1015.80 1015.80 1015.92 1015.96 1015.96 1015.96 1015.96 1015.92 1015.80 1015.68 1015.52 1015.36 1015.24 1015.04 1014.92 1014.76 1014.56 1014.36 1014.20 1013.80
1030.80 1030.56 1030.28 1030.04 1029.80 1029.48 1029.16 1028.92 1028.76 1028.56 1028.32 1028.04 1027.76 1027.48 1027.20 1026.96 1026.64 1026.36 1026.08 1025.84 1025.56 1025.24 1024.80 1024.40 1024.00 1023.64 1023.32 1022.92 1022.52 1022.20 1021.84 1021.52 1021.36 1021.12 1020.84 1020.52 1020.24 1019.92 1019.64 1019.44 1019.20 1018.88 1018.52 1018.16 1017.76 1017.28 1016.88 1016.52 1016.20 1015.92 1015.84 1016.04 1016.08 1016.08 1016.04 1016.04 1016.00 1015.92 1015.84 1015.72 1015.56 1015.44 1015.28 1015.08 1014.96 1014.80 1014.60 1014.40 1014.16
1030.84 1030.60 1030.36 1030.08 1029.80 1029.52 1029.24 1029.00 1028.80 1028.60 1028.36 1028.12 1027.88 1027.60 1027.32 1027.08 1026.80 1026.52 1026.24 1025.92 1025.60 1025.24 1024.88 1024.48 1024.08 1023.72 1023.36 1023.00 1022.64 1022.28 1021.92 1021.68 1021.52 1021.32 1021.04 1020.72 1020.44 1020.16 1019.88 1019.64 1019.36 1019.04 1018.68 1018.32 1017.88 1017.40 1017.00 1016.64 1016.36 1016.04 1015.92 1016.08 1016.16 1016.16 1016.08 1016.08 1016.08 1016.08 1016.00 1015.92 1015.80 1015.64 1015.52 1015.36 1015.20 1015.00 1014.84 1014.64 1014.48
Wind_Speed
13 12 12 11 10 10 9 9 10 10 10 10 10 10 10 10 10 10 10 10 10 10 10 10 11 12 14 16 17 18 18 19 20 20 21 20 19 19 18 18 17 17 16 16 15 14 13 13 12 11 10 10 10 11 11 10 11 11 11 10 10 9 9 9 9 10 10 11 9
14 14 13 12 11 10 9 10 10 10 11 10 10 10 10 10 10 10 10 10 10 10 11 10 12 13 15 17 17 17 18 19 20 20 20 19 19 19 18 17 17 17 17 17 16 13 12 12 11 10 9 9 10 11 11 11 11 11 12 13 10 8 7 8 9 10 10 10 9
14 14 13 12 12 11 10 10 11 12 13 11 10 10 10 10 10 10 10 11 12 12 11 11 12 14 16 17 16 17 17 18 19 19 18 18 18 19 18 17 18 18 18 17 16 14 13 12 11 10 10 9 10 11 11 11 11 12 11 10 7 5 5 6 7 8 8 8 8
15 14 14 13 14 14 13 11 13 14 14 11 11 11 10 10 10 10 11 12 13 12 12 12 13 13 14 16 17 18 18 19 20 19 18 18 18 19 19 18 18 17 17 17 17 16 15 14 11 10 10 11 12 12 11 10 11 10 8 5 4 4 5 6 6 7 7 7 7
15 14 14 14 15 14 13 13 14 15 13 11 11 10 10 10 10 11 11 12 12 12 13 15 14 14 14 16 18 18 18 19 19 19 18 18 19 18 18 18 17 17 17 17 18 17 17 15 11 9 9 11 10 10 10 12 12 9 5 3 3 3 4 5 6 6 7 7 6
15 15 15 15 15 14 13 13 15 15 14 12 12 12 12 11 11 12 13 12 13 14 15 16 15 15 15 16 17 17 17 17 17 18 18 19 18 19 19 19 18 18 18 18 19 19 18 15 11 9 9 9 10 11 12 13 11 7 4 3 3 2 3 5 6 6 7 8 6
15 16 16 16 16 15 15 16 15 15 14 12 14 15 15 15 15 16 16 14 13 13 14 14 15 15 16 16 15 15 16 16 17 18 18 18 18 19 20 19 19 19 19 19 19 19 17 15 11 9 9 9 9 10 12 12 9 6 4 4 3 2 3 4 5 6 6 6 4
15 16 17 17 16 17 17 18 16 15 14 12 14 16 17 18 18 18 17 15 13 13 13 13 15 16 17 16 15 15 16 17 17 17 17 17 19 20 20 19 18 19 19 19 19 19 18 15 11 9 9 9 8 9 10 11 9 7 5 4 3 2 2 3 4 5 5 5 3
15 16 17 16 17 17 18 18 17 16 15 14 15 16 17 18 19 18 16 14 13 14 14 14 16 17 17 16 16 16 16 16 17 17 17 18 19 20 20 18 18 18 18 18 18 19 18 14 11 10 9 9 9 9 10 11 10 8 6 4 3 2 2 2 3 4 4 5 4
16 16 17 16 17 18 18 18 17 16 16 16 17 17 18 18 18 17 15 13 14 15 15 15 16 17 17 16 15 15 15 15 16 17 18 18 19 20 20 18 18 18 18 17 17 17 16 13 13 13 13 11 11 11 11 11 10 9 7 4 3 2 2 1 1 2 3 3 4
16 17 17 16 18 18 18 18 16 15 15 15 17 17 17 17 17 17 16 15 15 16 16 16 17 17 16 14 14 15 15 15 15 16 17 18 19 19 20 19 19 18 18 18 16 15 13 13 15 17 18 15 13 11 10 11 11 10 9 6 5 4 3 2 1 0 1 2 3
16 17 17 17 18 19 18 17 15 15 15 16 17 17 17 16 17 17 17 17 16 16 16 17 17 17 15 13 13 14 15 15 16 16 17 18 18 19 19 19 19 19 18 17 15 14 13 14 16 18 20 20 15 12 11 12 12 11 10 8 6 5 5 4 3 2 1 1 2
16 17 17 18 19 19 18 17 15 14 15 17 17 17 16 16 17 18 18 17 17 16 15 16 17 16 14 13 13 14 14 15 16 16 16 17 18 18 18 18 19 18 17 15 15 14 14 15 17 18 19 20 17 16 15 16 14 12 10 9 8 7 7 6 5 4 3 3 2
17 17 17 18 19 18 17 17 15 14 15 17 17 17 16 16 17 17 17 16 16 16 15 15 15 14 14 14 14 14 15 15 16 17 17 17 18 18 18 17 18 18 16 13 14 15 15 15 16 17 18 19 18 18 18 17 16 15 13 10 7 7 8 8 7 7 6 5 4
17 17 18 18 18 17 16 16 14 14 15 17 17 16 15 14 16 16 17 17 17 15 14 15 14 14 14 14 15 15 16 16 16 17 17 18 18 18 18 18 18 18 16 13 13 14 14 15 15 16 17 18 18 18 18 17 16 16 15 14 12 9 7 7 8 8 8 8 6
17 17 17 18 18 17 16 16 13 14 15 16 16 16 15 14 14 16 17 18 16 14 14 16 16 15 14 14 14 14 15 15 16 16 17 17 18 18 19 18 18 18 17 15 13 13 13 13 13 14 15 16 16 17 17 17 16 16 16 16 15 14 13 10 7 7 8 8 8
17 17 17 17 17 17 16 16 14 14 15 16 16 16 15 14 14 15 17 18 16 15 16 17 16 15 14 13 12 12 13 14 15 15 16 16 17 17 18 18 17 18 18 16 14 13 13 13 12 13 13 14 15 15 16 16 15 15 15 15 15 15 16 15 12 8 5 4 5
17 17 17 17 17 17 16 16 15 15 15 16 16 16 15 15 15 15 16 17 17 18 18 18 17 16 15 14 12 11 11 12 14 15 15 16 16 16 17 17 16 17 17 16 14 13 12 13 13 12 12 13 13 14 15 15 14 14 15 15 15 15 16 16 16 13 9 4 1
17 17 17 17 16 16 16 17 16 16 16 16 15 15 15 16 16 15 15 16 18 18 18 18 18 17 17 16 14 12 12 12 14 15 16 16 16 16 16 16 16 16 16 16 13 12 11 12 12 12 11 12 12 13 14 14 14 14 14 13 14 14 15 16 16 15 13 10 6
17 17 17 16 16 16 16 16 15 15 15 15 15 16 16 16 16 16 16 16 17 18 17 17 17 18 18 17 15 14 13 12 13 15 16 16 16 16 17 17 16 15 15 15 13 11 10 10 11 11 11 11 12 13 13 14 13 13 13 12 12 13 14 14 15 15 15 13 10
16 16 16 16 15 15 15 15 15 15 15 15 16 16 17 17 17 17 17 17 17 17 17 16 17 17 18 18 17 15 14 12 13 14 15 15 16 16 16 16 16 15 14 14 13 11 9 9 9 10 10 10 11 12 12 12 13 13 13 11 11 12 12 12 13 13 13 13 13
15 15 15 15 15 15 15 15 15 15 15 15 15 16 16 17 17 17 17 17 17 17 17 16 16 17 17 17 17 16 15 13 14 14 14 14 15 15 15 15 15 15 15 15 14 11 8 7 8 8 9 9 10 11 11 11 12 12 12 12 12 12 12 12 11 11 12 12 13
15 15 14 14 14 15 15 15 14 14 15 15 15 16 16 17 17 17 17 17 17 17 17 16 15 16 16 16 17 17 16 15 15 15 15 15 15 15 15 14 15 15 15 14 14 11 7 4 6 7 8 8 9 10 10 10 11 11 12 12 12 12 11 11 11 11 11 12 12
15 14 14 13 14 14 14 14 14 15 15 15 15 16 16 16 17 17 17 17 17 17 17 15 14 15 15 15 16 16 17 17 17 16 16 16 16 15 15 14 14 14 13 13 16 13 7 3 3 5 6 7 8 8 8 9 10 11 11 12 12 12 11 11 11 11 12 12 11
15 15 14 14 14 14 14 14 15 15 15 14 15 15 16 16 16 16 17 17 17 17 17 16 15 15 14 14 15 16 16 17 17 17 17 17 16 16 15 13 12 12 13 15 21 16 9 9 6 5 5 6 7 7 8 9 10 10 11 11 11 11 11 11 11 11 11 11 11
15 15 15 15 14 14 14 14 14 14 14 14 14 15 15 16 15 16 16 17 17 17 16 16 15 15 15 14 15 16 16 16 16 16 17 16 17 16 15 13 12 11 13 20 20 15 14 15 13 10 7 5 6 7 7 8 9 10 10 10 11 11 11 11 11 11 11 10 11
15 15 15 15 14 14 14 14 14 14 14 14 14 15 15 15 15 15 16 16 16 16 15 14 14 15 15 14 15 16 16 15 16 16 16 16 16 16 15 13 12 11 15 23 19 15 16 17 16 13 10 6 6 7 7 8 9 9 10 10 10 11 11 11 11 11 11 10 10
15 15 15 15 14 14 14 14 14 14 14 14 14 15 15 15 15 15 15 15 16 15 14 13 13 13 12 12 14 16 16 16 15 15 15 15 15 15 15 13 12 14 19 27 19 15 15 16 15 14 12 8 6 6 7 7 8 8 8 8 9 10 10 10 10 10 10 10 10
15 15 15 15 15 15 15 15 15 15 14 13 14 15 15 15 15 15 15 15 15 15 13 12 12 11 12 13 14 15 16 16 15 14 14 15 16 15 15 15 14 17 22 29 21 16 14 15 14 14 14 11 7 6 6 6 7 7 7 7 8 9 10 9 9 10 10 10 9
14 14 14 15 15 15 15 15 15 15 14 13 14 15 15 15 15 15 15 15 15 14 14 13 12 13 14 15 15 15 14 14 13 14 14 15 16 16 15 16 15 17 22 30 24 17 14 15 15 15 14 13 9 7 5 6 6 7 7 7 8 9 10 9 10 11 11 10 9
14 14 14 14 15 15 15 15 14 14 14 13 14 15 15 15 15 15 15 15 15 15 14 14 15 15 16 15 15 15 14 14 13 13 14 15 16 16 15 16 16 18 22 30 26 20 16 15 15 15 15 14 10 7 6 6 6 6 7 7 9 10 10 9 10 11 11 11 10
13 14 14 14 15 15 15 15 14 13 13 14 15 16 16 16 15 15 15 14 15 15 15 15 16 16 16 16 16 16 15 15 14 14 15 15 15 15 15 15 15 18 22 29 28 23 18 15 15 15 15 13 10 8 6 6 6 6 7 8 9 10 10 9 9 10 11 11 10
13 13 14 14 15 15 15 15 13 13 13 14 15 16 16 16 15 15 15 14 15 15 15 15 15 16 16 16 16 16 16 15 15 15 16 16 15 15 14 14 13 16 22 28 29 26 21 15 15 15 14 13 9 7 6 6 6 6 6 7 8 9 10 10 9 9 9 10 9
14 14 14 14 15 15 15 15 13 13 13 15 16 16 16 16 16 15 15 15 15 14 14 14 14 14 14 15 16 16 16 15 15 15 15 16 15 15 15 13 11 16 23 27 28 27 23 16 14 14 13 11 8 6 6 6 6 6 7 7 8 9 9 9 9 9 8 8 8
14 14 14 15 15 15 15 15 14 14 14 15 16 16 16 15 15 15 15 16 16 15 14 14 14 14 14 14 15 16 16 16 15 15 15 16 16 16 15 14 13 17 23 26 27 27 25 20 14 12 11 9 6 5 5 6 6 6 7 8 8 9 9 9 9 8 7 7 7
14 14 15 15 15 16 16 16 15 15 15 15 16 16 16 15 14 14 14 16 15 15 15 15 14 14 14 15 15 15 15 16 15 15 15 16 16 16 16 15 15 18 22 25 26 27 26 24 16 12 9 7 4 4 4 4 5 5 7 7 7 8 8 8 8 8 8 7 6
14 14 14 15 15 15 16 16 16 15 15 16 15 15 15 15 14 13 14 15 14 15 15 15 15 15 15 15 14 14 15 15 15 15 15 15 16 16 16 16 15 17 21 24 26 27 26 26 20 13 7 4 3 3 4 4 4 5 5 6 7 7 7 7 7 8 8 8 8
14 14 14 14 15 15 15 15 15 15 15 15 15 14 14 13 13 13 13 14 13 14 15 15 15 15 15 15 14 14 14 15 15 15 15 14 15 16 16 16 16 17 19 23 25 26 26 26 24 16 8 3 3 3 3 4 4 4 5 5 6 6 7 6 6 7 8 10 12
14 14 14 14 14 14 14 14 15 15 15 15 15 14 14 13 12 13 13 13 13 13 14 14 15 15 16 16 15 14 14 14 14 15 15 14 15 16 17 17 16 16 18 23 24 25 25 25 25 20 13 4 3 3 3 3 4 4 4 5 5 6 6 6 6 6 7 10 14
14 14 14 14 14 13 13 14 14 14 14 14 14 14 14 13 13 13 13 12 12 12 13 13 15 15 16 16 14 13 13 13 14 14 15 15 15 17 18 17 16 16 18 21 23 24 24 24 24 22 16 5 3 3 3 3 4 4 5 5 5 5 6 6 6 6 7 8 11
13 13 14 14 13 13 13 13 13 14 14 14 14 13 13 13 13 12 12 12 12 12 12 12 14 15 16 15 13 12 13 13 14 14 15 15 15 16 17 16 15 15 16 18 21 23 23 23 23 23 18 6 4 3 3 3 3 4 5 5 5 5 5 6 6 6 7 8 8
Wind_Direction
339 337 335 334 335 336 336 334 333 333 332 328 325 323 324 324 325 325 325 325 324 323 322 320 320 320 320 321 322 323 323 323 323 321 320 318 314 312 309 306 304 302 300 297 295 292 290 288 287 285 284 284 284 284 283 281 281 278 273 267 265 261 255 251 250 248 246 243 242
338 336 334 334 336 336 336 335 334 333 332 327 324 324 325 326 326 326 325 326 324 323 321 319 320 320 320 322 325 326 326 325 324 323 321 319 316 314 312 309 307 305 302 299 296 292 288 286 285 284 283 283 283 283 282 281 281 278 273 268 266 262 257 252 249 247 244 241 237
338 337 336 335 338 339 338 336 335 333 331 326 325 326 327 328 327 326 325 325 324 323 321 320 319 320 322 325 327 329 328 327 327 325 323 320 318 316 314 312 310 308 306 303 299 293 288 285 284 282 281 281 282 283 283 282 281 277 273 272 274 273 269 263 257 251 245 241 233
339 338 337 336 338 339 339 338 335 333 331 327 326 327 329 330 327 325 324 323 324 323 323 321 319 321 324 327 328 329 329 329 329 327 325 322 320 318 316 316 316 315 313 310 305 298 292 287 283 279 278 279 280 280 281 282 280 278 276 280 283 283 281 278 271 263 255 249 237
340 340 338 337 338 340 340 338 336 333 330 327 327 330 331 330 327 325 325 325 325 324 322 320 320 322 325 327 328 329 330 330 331 329 327 324 322 321 321 322 323 323 322 320 315 308 301 293 285 277 275 275 276 276 277 279 279 278 276 271 271 280 289 292 285 277 267 259 247
340 340 339 337 339 340 340 339 336 333 330 327 329 331 332 330 328 327 326 326 323 322 321 321 321 323 324 326 327 329 330 331 331 330 329 327 326 325 325 326 328 329 329 327 323 317 310 302 291 279 273 272 272 273 275 278 276 272 265 259 269 288 305 308 302 292 280 265 245
340 340 339 338 340 341 341 340 336 333 330 328 331 332 332 330 328 327 326 324 323 323 324 324 324 324 324 326 328 330 332 332 331 331 330 329 329 329 329 329 330 332 332 331 328 323 318 310 298 285 276 273 273 273 274 275 269 260 252 256 269 291 311 315 314 306 296 279 249
341 341 341 340 341 341 340 339 336 333 332 331 333 334 332 330 329 327 326 324 324 325 326 324 323 323 323 326 329 332 332 332 331 331 331 331 332 332 332 330 331 333 335 335 332 328 323 315 303 290 281 274 273 273 273 273 266 256 247 248 258 275 305 321 325 323 322 325 347
343 343 343 342 342 342 340 339 336 334 333 333 334 334 332 331 330 329 327 325 325 326 326 323 322 323 324 327 331 333 334 333 332 331 332 332 334 334 334 332 333 336 338 338 335 331 326 319 309 299 289 278 273 271 272 273 267 257 245 238 240 250 279 314 331 334 339 349 11
345 345 345 344 343 342 340 338 336 334 334 334 335 334 333 332 331 329 327 325 326 326 325 324 323 324 325 328 332 335 335 334 332 332 332 333 335 336 336 335 335 337 340 341 338 335 331 326 322 318 311 297 284 277 276 277 273 262 248 234 224 220 230 269 315 341 355 7 25
346 346 346 345 344 342 340 339 336 336 336 336 336 335 334 333 331 329 327 326 326 325 325 325 325 325 326 329 333 335 335 334 333 333 333 333 334 335 336 336 336 339 342 344 342 340 338 337 335 334 331 325 311 300 292 289 280 268 253 236 219 206 202 213 214 209 37 32 37
346 347 347 346 344 343 341 340 338 337 337 338 337 336 335 333 331 329 328 328 327 326 326 327 326 326 327 329 334 335 335 335 334 334 333 334 334 334 335 336 337 339 342 345 345 344 344 344 343 343 343 342 339 333 325 315 300 283 264 241 222 209 203 204 200 194 172 113 64
346 347 347 346 345 344 343 342 339 338 339 339 338 336 335 333 332 331 330 329 328 327 328 328 327 326 326 329 334 335 336 335 335 335 335 335 335 335 335 336 337 338 341 345 346 347 347 348 349 349 348 348 348 345 341 336 326 312 292 260 235 219 212 210 206 202 197 188 146
346 347 346 346 345 344 343 343 340 339 339 339 337 336 334 333 332 332 331 330 329 328 328 328 327 326 326 330 334 335 336 335 336 336 336 337 337 337 336 337 337 338 339 343 345 347 349 351 353 353 352 351 350 349 347 346 343 338 329 309 277 246 229 221 217 214 215 218 204
345 346 346 345 345 344 344 343 341 340 339 338 337 335 333 332 333 333 332 331 330 329 328 329 327 325 325 329 334 335 335 335 336 337 338 338 339 338 338 338 338 338 338 339 342 345 348 352 355 356 356 354 352 351 351 351 352 352 351 348 337 319 289 258 237 228 224 227 222
344 345 344 344 344 343 343 342 340 339 338 336 335 334 333 332 333 333 333 332 331 330 330 331 328 326 325 328 333 334 334 335 336 337 338 338 339 339 339 339 339 338 337 337 340 342 345 350 355 358 359 357 355 354 354 354 354 356 358 359 356 351 341 325 294 258 234 223 219
343 343 343 342 342 341 340 340 339 337 336 334 334 333 332 332 332 333 333 333 331 331 332 332 330 328 326 326 331 332 333 334 335 335 336 336 337 338 338 338 338 338 337 336 337 340 342 345 352 358 1 1 358 356 355 355 355 356 358 359 360 359 357 352 342 325 285 227 204
342 342 341 341 340 339 338 337 336 335 334 333 333 332 332 332 332 331 331 332 331 332 332 332 332 331 329 327 329 331 333 333 333 333 333 334 335 335 336 337 338 338 338 336 335 337 340 341 347 354 0 4 1 358 356 354 354 355 356 358 1 2 1 359 355 350 344 347 61
340 340 340 339 338 337 336 335 335 334 333 332 332 332 331 331 331 331 330 330 331 331 331 332 333 333 332 329 328 330 332 332 332 331 332 332 333 334 335 336 337 338 337 335 332 333 336 338 343 350 358 4 4 1 357 354 353 353 354 356 1 3 4 2 359 356 353 356 9
339 339 338 337 336 335 334 334 333 332 332 332 332 332 332 332 332 332 331 330 330 330 330 331 333 334 333 331 329 330 332 332 332 331 331 331 332 333 334 335 336 336 335 333 331 331 333 336 341 347 355 3 5 4 360 355 352 351 352 355 359 3 5 5 2 359 357 359 6
337 336 335 334 334 333 333 332 331 331 331 331 332 333 334 334 334 333 332 330 330 330 331 331 333 334 334 332 331 330 331 331 331 330 330 330 330 331 332 333 334 333 332 331 330 329 329 333 339 345 353 1 5 5 2 357 352 351 351 352 356 1 5 6 3 0 359 2 10
335 334 333 332 332 332 331 331 331 331 331 332 333 334 335 335 335 333 332 331 332 332 332 332 333 334 334 333 332 332 331 330 330 329 329 328 329 330 331 331 332 332 330 329 327 326 325 331 338 345 352 359 4 5 3 359 353 350 349 351 354 359 4 7 5 2 0 3 11
332 332 332 331 331 331 331 331 331 331 332 332 334 335 336 336 335 334 333 333 333 333 333 332 332 333 333 333 333 333 332 331 330 330 329 329 328 329 330 331 331 331 330 327 323 323 324 334 342 348 353 357 1 2 1 359 355 352 350 350 353 357 2 6 6 5 4 4 9
331 332 332 331 331 331 331 331 332 333 333 333 334 335 335 336 335 335 334 334 333 333 332 332 332 332 332 333 334 334 334 333 332 331 330 330 330 330 331 332 331 330 328 325 321 326 341 45 4 356 356 357 359 359 359 359 357 354 352 351 353 356 360 4 7 7 7 7 9
332 332 332 332 331 331 332 332 333 333 332 331 332 334 335 336 336 335 335 334 333 332 331 331 332 333 334 334 334 334 334 334 333 332 331 330 331 331 332 332 332 331 328 323 323 336 16 57 40 22 6 357 357 358 359 1 360 357 355 353 354 356 358 2 5 8 9 9 10
333 333 333 332 332 332 332 333 333 332 331 330 333 334 336 336 335 335 335 334 333 332 331 332 333 335 336 336 335 334 334 333 332 331 331 330 331 332 333 333 332 331 328 323 332 358 38 43 38 34 26 5 1 1 2 2 1 360 358 357 357 358 359 1 3 5 7 10 11
335 334 333 332 332 332 332 333 332 331 331 332 334 335 336 335 335 335 335 334 333 332 331 333 334 336 336 335 334 333 333 332 331 330 330 330 331 332 333 333 333 331 329 328 341 13 40 35 34 33 31 19 9 6 5 3 2 1 1 0 1 1 2 2 2 3 5 8 11
335 334 333 332 332 332 332 332 333 333 333 334 336 336 335 335 335 335 335 334 333 333 333 335 335 336 336 335 333 332 331 330 329 329 330 331 332 333 334 333 333 331 332 334 345 11 33 34 32 32 32 30 19 10 7 5 2 1 1 2 2 2 3 4 3 3 5 7 11
334 333 332 332 332 332 332 333 333 333 334 335 337 337 336 336 336 337 336 335 334 334 335 335 335 335 334 333 331 330 329 328 328 329 330 332 334 335 336 335 334 333 333 336 345 5 28 33 32 32 33 33 27 16 9 6 4 2 2 3 3 3 4 5 6 7 7 8 12
333 332 332 332 332 332 332 332 331 332 334 338 339 338 338 337 338 338 338 336 334 334 334 334 333 333 332 331 330 330 329 327 327 329 331 333 336 336 337 337 337 335 335 338 346 2 23 31 30 32 33 34 30 23 13 9 7 6 5 5 4 3 4 5 9 11 11 11 13
332 331 331 331 332 332 331 330 328 331 336 341 341 341 340 339 339 339 337 335 333 332 333 333 332 332 332 331 331 330 328 325 327 329 332 334 336 336 337 339 338 337 337 340 349 1 18 27 28 30 33 35 30 23 14 11 11 10 9 7 6 4 4 4 8 12 14 15 15
331 331 332 332 332 331 330 328 327 331 339 344 343 342 341 340 339 337 335 333 332 333 334 334 333 333 332 333 332 330 328 327 328 331 333 334 335 336 338 341 341 339 339 342 349 359 12 25 26 29 32 35 30 22 13 11 11 11 10 9 7 5 4 3 6 10 13 16 17
332 332 332 332 332 331 329 326 328 335 343 346 345 343 341 339 338 337 336 334 334 334 335 334 333 332 332 332 331 330 329 328 329 330 331 332 334 337 340 345 342 340 340 342 348 356 7 21 23 26 29 33 29 19 9 9 9 10 9 9 8 6 5 4 4 6 10 15 17
333 333 334 333 333 331 329 327 332 340 346 347 345 343 341 339 338 337 336 335 335 335 333 331 330 329 329 330 330 329 329 330 330 330 330 331 333 337 341 347 343 340 341 343 346 352 1 13 19 23 26 29 25 15 5 6 6 7 7 7 6 5 3 2 2 2 5 12 18
333 334 334 334 333 332 330 330 338 345 348 346 344 342 341 339 338 336 335 334 334 333 331 329 328 328 329 330 330 330 330 330 329 329 330 331 333 336 340 346 343 341 342 343 344 349 355 5 14 21 23 25 20 10 2 2 3 4 4 5 4 2 360 359 358 358 359 7 21
333 334 333 333 333 332 331 335 343 347 347 345 342 341 340 338 336 334 333 334 334 333 330 329 329 330 331 331 330 330 330 329 329 330 331 332 333 335 339 344 343 342 342 343 344 346 351 360 9 18 22 22 14 5 360 357 357 358 0 2 1 358 354 353 353 353 355 360 21
333 332 332 332 332 332 333 338 345 347 345 342 341 339 338 336 334 333 333 335 334 332 330 328 329 330 331 330 328 328 328 329 331 332 333 333 333 335 339 343 343 342 341 342 343 345 347 353 3 14 28 24 13 5 2 357 353 353 356 359 357 354 351 348 348 350 353 355 18
332 331 331 331 330 331 334 341 346 346 343 339 338 337 336 335 333 332 333 335 333 330 328 327 328 330 330 329 328 327 329 332 335 336 336 334 334 337 341 343 343 341 341 341 343 344 346 349 359 9 26 48 26 15 9 3 355 352 353 355 354 353 352 348 348 349 352 355 12
331 331 330 330 329 330 334 342 345 344 340 337 336 336 335 335 334 333 332 332 330 327 326 326 327 328 329 330 330 330 332 335 340 341 340 338 337 341 344 345 342 340 340 342 343 344 346 347 353 3 18 70 49 31 23 15 3 358 356 357 356 354 353 350 349 350 352 355 6
330 330 330 329 328 329 334 341 343 342 339 336 335 335 335 335 332 331 330 328 327 326 326 325 327 327 329 331 331 332 334 340 345 345 344 341 341 344 346 346 341 339 340 341 343 345 347 348 352 1 14 72 57 43 36 30 16 8 4 3 2 359 355 352 353 354 355 355 360
330 330 329 328 327 328 332 339 341 341 339 336 335 334 333 333 330 329 328 327 327 327 327 327 327 327 328 331 331 333 337 343 348 348 346 343 342 345 347 346 342 340 340 341 344 347 350 352 353 360 9 45 53 50 41 44 30 18 9 4 5 3 0 356 356 358 358 357 356